Location: Brno
(49.2000°N, 16.6330°E)
Time: 16:31:58
(UTC+02:00)

Explorer 11/Cluster Stage 4 - Pass Details

Date: 29 July 2021
Orbit: 467 x 1256 km, 28.8° (Epoch: 27 September)

Event Time Altitude Azimuth Distance (km) Brightness Sun altitude
Rises 14:15:47 0° 241° (WSW) 4,069 10.7 55.8°
Reaches altitude 10° 14:21:10 10° 212° (SSW) 2,947 10.3 55.3°
Maximum altitude 14:23:22 12° 194° (SSW) 2,752 10.1 55.1°
Drops below altitude 10° 14:25:29 10° 176° (S) 2,781 10.0 54.9°
Sets 14:30:07 0° 145° (SE) 3,514 10.1 54.5°
